TIARET current weather conditions

sailwx.info

Wind from 270 at 12 knots

Air temperature 11.0° C
Visibility: greater than 5.4 NM
Dewpoint 5.0° C

Last reported at 2017-Mar-25 11:00 UTC.
Time now 2017-Mar-25 13:32 UTC

Location: N 35°20' E 001°28'.
View on Google Maps.

See reports from other nearby stations

  
Tides and Currents Weather Stations Pressure Air Temp Water Temp Dewpoint Dewpoint Depression Visibility Wind Speed Wind Dir Waves Ship Positions
date/time (UTC)wind fromknots sea level pressurealtimeterstation pressurevisibilityair tempwater tempwave heightnotes
2017-Mar-25 12:00 270 7 5.412.0
2017-Mar-25 11:00 270 12 5.411.0
2017-Mar-25 10:00 290 9 5.410.0
2017-Mar-25 09:00 230 9 5.4 8.0
2017-Mar-25 08:00 210 9 5.4 5.0
2017-Mar-25 07:00 270 1 5.4-0.0
2017-Mar-25 06:00 270 1 5.4-0.0
2017-Mar-25 04:00 5.4 1.0
2017-Mar-25 03:00 240 4 5.4 1.0
2017-Mar-25 02:00 240 6 5.4 2.0
2017-Mar-25 01:00 240 7 5.4 2.0
2017-Mar-25 00:00 240 7 5.4 2.0
2017-Mar-24 23:00 240 7 5.4 2.0
2017-Mar-24 22:00 240 9 5.4 3.0
2017-Mar-24 21:00 270 4 5.4 3.0
2017-Mar-24 20:00 270 7 5.4 3.0
2017-Mar-24 19:00 270 7 5.4 5.0
2017-Mar-24 17:00 270 9 5.4 5.0
2017-Mar-24 16:00 290 15 5.4 5.0
2017-Mar-24 15:00 280 18 4.3 5.0
2017-Mar-24 14:52 280 18 4.3 5.0
2017-Mar-24 14:00 280 13 4.3 5.0
2017-Mar-24 13:00 280 12 4.3 5.0
2017-Mar-24 12:00 270 9 4.3 4.0
2017-Mar-24 11:00 280 12 3.8 3.0
2017-Mar-24 09:00 280 7 5.4 3.0
2017-Mar-24 08:00 310 6 5.4 2.0
2017-Mar-24 07:00 310 9 5.4 2.0
2017-Mar-24 06:00 340 7 5.4 2.0
2017-Mar-24 05:55 340 7 5.4 2.0
2017-Mar-24 05:00 300 7 5.4 1.0
2017-Mar-24 04:00 350 5 4.9 1.0
2017-Mar-24 03:00 330 6 4.3 2.0 Light drizzle snow.
2017-Mar-24 02:00 320 9 5.4 2.0
2017-Mar-24 01:00 330 7 5.4 2.0
2017-Mar-24 00:00 310 12 5.4 3.0
2017-Mar-23 23:00 320 9 5.4 5.0
2017-Mar-23 22:00 310 9 5.4 5.0
2017-Mar-23 21:00 340 6 5.4 6.0
2017-Mar-23 20:00 330 5 5.4 5.0
2017-Mar-23 19:00 330 8 5.4 6.0
2017-Mar-23 18:00 320 11 5.4 7.0
2017-Mar-23 17:00 330 12 5.4 8.0
2017-Mar-23 16:00 340 12 5.4 9.0
2017-Mar-23 15:00 340 12 5.4 9.0
2017-Mar-23 14:00 330 9 5.412.0
2017-Mar-23 13:00 330 9 5.411.0